HISTORICAL SENSOR DATA

Sensor Data Report

DB LIVE
CURRENT TIME--:--:--
DEVICE NETWORK Gateway Status
13 ESP · realtime ~1s · history 60s
Weather WS-MOD-01
OFFLINE
Actuator ACT-MOD-01
OFFLINE
Mainboard L3 MB-L3-01
OFFLINE
Mainboard L5 MB-L5-01
OFFLINE
Remote AC AC-REMOTE-01
OFFLINE
PZEM L3-01 PWR-L3-01
OFFLINE
PZEM L3-02 PWR-L3-02
OFFLINE
PZEM L3-03 PWR-L3-03
OFFLINE
PZEM L3-04 PWR-L3-04
OFFLINE
PZEM L5-01 PWR-L5-01
OFFLINE
PZEM L5-02 PWR-L5-02
OFFLINE
PZEM L5-03 PWR-L5-03
OFFLINE
PZEM L5-04 PWR-L5-04
OFFLINE
REPORT FILTER

Periode & Sensor

DATABASE HISTORY
RESET
QUICK RANGE Hari ini 7 hari 30 hari
PERIODE31 Aug 2026sampai 06 Sep 2026
TOTAL DATA40,859sensor readings
MINIMUM-0.50sesuai filter
AVERAGE59.90sesuai filter
MAXIMUM11,921.20sesuai filter
REPORT RESULT

Data Sensor

31/08/2026 — 06/09/2026 EXPORT CSV
NOTANGGALWAKTUDEVICECHANNELSENSORVALUEUNIT
10401 02/09/2026 15:26:19 WS-MOD-01Weather Station Module WS-PRES Tekanan Udara 998.00 hPa
10402 02/09/2026 15:26:19 WS-MOD-01Weather Station Module WS-TEMP Suhu Udara 29.80 °C
10403 02/09/2026 15:26:14 WS-MOD-01Weather Station Module WS-RH Kelembapan Udara 63.30 %RH
10404 02/09/2026 15:26:14 WS-MOD-01Weather Station Module WS-WIND Kecepatan Angin 0.03 m/s
10405 02/09/2026 15:26:14 WS-MOD-01Weather Station Module WS-PRES Tekanan Udara 998.00 hPa
10406 02/09/2026 15:26:14 WS-MOD-01Weather Station Module WS-TEMP Suhu Udara 29.80 °C
10407 02/09/2026 15:26:14 WS-MOD-01Weather Station Module WS-DIR Arah Angin 307.00 °
10408 02/09/2026 15:26:09 WS-MOD-01Weather Station Module WS-WIND Kecepatan Angin 0.02 m/s
10409 02/09/2026 15:26:09 WS-MOD-01Weather Station Module WS-PRES Tekanan Udara 998.00 hPa
10410 02/09/2026 15:26:09 WS-MOD-01Weather Station Module WS-TEMP Suhu Udara 29.80 °C
10411 02/09/2026 15:26:09 WS-MOD-01Weather Station Module WS-DIR Arah Angin 313.80 °
10412 02/09/2026 15:26:09 WS-MOD-01Weather Station Module WS-RH Kelembapan Udara 63.50 %RH
10413 02/09/2026 15:26:04 WS-MOD-01Weather Station Module WS-PRES Tekanan Udara 998.00 hPa
10414 02/09/2026 15:26:04 WS-MOD-01Weather Station Module WS-TEMP Suhu Udara 29.80 °C
10415 02/09/2026 15:26:04 WS-MOD-01Weather Station Module WS-DIR Arah Angin 308.80 °
10416 02/09/2026 15:26:04 WS-MOD-01Weather Station Module WS-RH Kelembapan Udara 63.50 %RH
10417 02/09/2026 15:26:04 WS-MOD-01Weather Station Module WS-WIND Kecepatan Angin 0.03 m/s
10418 02/09/2026 15:25:59 WS-MOD-01Weather Station Module WS-TEMP Suhu Udara 29.80 °C
10419 02/09/2026 15:25:59 WS-MOD-01Weather Station Module WS-DIR Arah Angin 308.80 °
10420 02/09/2026 15:25:59 WS-MOD-01Weather Station Module WS-RH Kelembapan Udara 63.40 %RH
10421 02/09/2026 15:25:59 WS-MOD-01Weather Station Module WS-WIND Kecepatan Angin 0.02 m/s
10422 02/09/2026 15:25:59 WS-MOD-01Weather Station Module WS-PRES Tekanan Udara 998.00 hPa
10423 02/09/2026 15:25:53 WS-MOD-01Weather Station Module WS-RH Kelembapan Udara 63.50 %RH
10424 02/09/2026 15:25:53 WS-MOD-01Weather Station Module WS-WIND Kecepatan Angin 0.03 m/s
10425 02/09/2026 15:25:53 WS-MOD-01Weather Station Module WS-PRES Tekanan Udara 998.00 hPa
10426 02/09/2026 15:25:53 WS-MOD-01Weather Station Module WS-TEMP Suhu Udara 29.80 °C
10427 02/09/2026 15:25:53 WS-MOD-01Weather Station Module WS-DIR Arah Angin 301.40 °
10428 02/09/2026 15:25:49 WS-MOD-01Weather Station Module WS-RH Kelembapan Udara 63.50 %RH
10429 02/09/2026 15:25:49 WS-MOD-01Weather Station Module WS-WIND Kecepatan Angin 0.02 m/s
10430 02/09/2026 15:25:49 WS-MOD-01Weather Station Module WS-PRES Tekanan Udara 998.00 hPa
10431 02/09/2026 15:25:49 WS-MOD-01Weather Station Module WS-TEMP Suhu Udara 29.80 °C
10432 02/09/2026 15:25:49 WS-MOD-01Weather Station Module WS-DIR Arah Angin 302.50 °
10433 02/09/2026 15:25:43 WS-MOD-01Weather Station Module WS-WIND Kecepatan Angin 0.03 m/s
10434 02/09/2026 15:25:43 WS-MOD-01Weather Station Module WS-PRES Tekanan Udara 998.00 hPa
10435 02/09/2026 15:25:43 WS-MOD-01Weather Station Module WS-TEMP Suhu Udara 29.80 °C
10436 02/09/2026 15:25:43 WS-MOD-01Weather Station Module WS-DIR Arah Angin 292.70 °
10437 02/09/2026 15:25:43 WS-MOD-01Weather Station Module WS-RH Kelembapan Udara 63.50 %RH
10438 02/09/2026 15:25:38 WS-MOD-01Weather Station Module WS-PRES Tekanan Udara 998.00 hPa
10439 02/09/2026 15:25:38 WS-MOD-01Weather Station Module WS-TEMP Suhu Udara 29.80 °C
10440 02/09/2026 15:25:38 WS-MOD-01Weather Station Module WS-DIR Arah Angin 302.40 °
10441 02/09/2026 15:25:38 WS-MOD-01Weather Station Module WS-RH Kelembapan Udara 63.20 %RH
10442 02/09/2026 15:25:38 WS-MOD-01Weather Station Module WS-WIND Kecepatan Angin 0.03 m/s
10443 02/09/2026 15:25:33 WS-MOD-01Weather Station Module WS-TEMP Suhu Udara 29.80 °C
10444 02/09/2026 15:25:33 WS-MOD-01Weather Station Module WS-DIR Arah Angin 311.90 °
10445 02/09/2026 15:25:33 WS-MOD-01Weather Station Module WS-RH Kelembapan Udara 63.00 %RH
10446 02/09/2026 15:25:33 WS-MOD-01Weather Station Module WS-WIND Kecepatan Angin 0.02 m/s
10447 02/09/2026 15:25:33 WS-MOD-01Weather Station Module WS-PRES Tekanan Udara 998.00 hPa
10448 02/09/2026 15:25:28 WS-MOD-01Weather Station Module WS-RH Kelembapan Udara 63.10 %RH
10449 02/09/2026 15:25:28 WS-MOD-01Weather Station Module WS-WIND Kecepatan Angin 0.01 m/s
10450 02/09/2026 15:25:28 WS-MOD-01Weather Station Module WS-PRES Tekanan Udara 998.00 hPa
10451 02/09/2026 15:25:28 WS-MOD-01Weather Station Module WS-TEMP Suhu Udara 29.80 °C
10452 02/09/2026 15:25:28 WS-MOD-01Weather Station Module WS-DIR Arah Angin 313.30 °
10453 02/09/2026 15:25:23 WS-MOD-01Weather Station Module WS-RH Kelembapan Udara 63.20 %RH
10454 02/09/2026 15:25:23 WS-MOD-01Weather Station Module WS-WIND Kecepatan Angin 0.04 m/s
10455 02/09/2026 15:25:23 WS-MOD-01Weather Station Module WS-PRES Tekanan Udara 998.00 hPa
10456 02/09/2026 15:25:23 WS-MOD-01Weather Station Module WS-TEMP Suhu Udara 29.80 °C
10457 02/09/2026 15:25:23 WS-MOD-01Weather Station Module WS-DIR Arah Angin 311.80 °
10458 02/09/2026 15:25:18 WS-MOD-01Weather Station Module WS-PRES Tekanan Udara 998.00 hPa
10459 02/09/2026 15:25:18 WS-MOD-01Weather Station Module WS-TEMP Suhu Udara 29.80 °C
10460 02/09/2026 15:25:18 WS-MOD-01Weather Station Module WS-DIR Arah Angin 316.10 °
10461 02/09/2026 15:25:18 WS-MOD-01Weather Station Module WS-RH Kelembapan Udara 63.20 %RH
10462 02/09/2026 15:25:18 WS-MOD-01Weather Station Module WS-WIND Kecepatan Angin 0.02 m/s
10463 02/09/2026 15:25:13 WS-MOD-01Weather Station Module WS-PRES Tekanan Udara 998.00 hPa
10464 02/09/2026 15:25:13 WS-MOD-01Weather Station Module WS-TEMP Suhu Udara 29.80 °C
10465 02/09/2026 15:25:13 WS-MOD-01Weather Station Module WS-DIR Arah Angin 308.90 °
10466 02/09/2026 15:25:13 WS-MOD-01Weather Station Module WS-RH Kelembapan Udara 63.20 %RH
10467 02/09/2026 15:25:13 WS-MOD-01Weather Station Module WS-WIND Kecepatan Angin 0.02 m/s
10468 02/09/2026 15:25:08 WS-MOD-01Weather Station Module WS-DIR Arah Angin 308.80 °
10469 02/09/2026 15:25:08 WS-MOD-01Weather Station Module WS-RH Kelembapan Udara 63.30 %RH
10470 02/09/2026 15:25:08 WS-MOD-01Weather Station Module WS-WIND Kecepatan Angin 0.03 m/s
10471 02/09/2026 15:25:08 WS-MOD-01Weather Station Module WS-PRES Tekanan Udara 998.00 hPa
10472 02/09/2026 15:25:08 WS-MOD-01Weather Station Module WS-TEMP Suhu Udara 29.80 °C
10473 02/09/2026 15:25:04 WS-MOD-01Weather Station Module WS-RH Kelembapan Udara 63.40 %RH
10474 02/09/2026 15:25:04 WS-MOD-01Weather Station Module WS-WIND Kecepatan Angin 0.02 m/s
10475 02/09/2026 15:25:04 WS-MOD-01Weather Station Module WS-PRES Tekanan Udara 998.00 hPa
10476 02/09/2026 15:25:04 WS-MOD-01Weather Station Module WS-TEMP Suhu Udara 29.80 °C
10477 02/09/2026 15:25:04 WS-MOD-01Weather Station Module WS-DIR Arah Angin 307.30 °
10478 02/09/2026 15:24:58 WS-MOD-01Weather Station Module WS-WIND Kecepatan Angin 0.03 m/s
10479 02/09/2026 15:24:58 WS-MOD-01Weather Station Module WS-PRES Tekanan Udara 998.00 hPa
10480 02/09/2026 15:24:58 WS-MOD-01Weather Station Module WS-TEMP Suhu Udara 29.80 °C
10481 02/09/2026 15:24:58 WS-MOD-01Weather Station Module WS-DIR Arah Angin 309.00 °
10482 02/09/2026 15:24:58 WS-MOD-01Weather Station Module WS-RH Kelembapan Udara 63.40 %RH
10483 02/09/2026 15:24:53 WS-MOD-01Weather Station Module WS-PRES Tekanan Udara 998.00 hPa
10484 02/09/2026 15:24:53 WS-MOD-01Weather Station Module WS-TEMP Suhu Udara 29.80 °C
10485 02/09/2026 15:24:53 WS-MOD-01Weather Station Module WS-DIR Arah Angin 307.20 °
10486 02/09/2026 15:24:53 WS-MOD-01Weather Station Module WS-RH Kelembapan Udara 63.20 %RH
10487 02/09/2026 15:24:53 WS-MOD-01Weather Station Module WS-WIND Kecepatan Angin 0.02 m/s
10488 02/09/2026 15:24:48 WS-MOD-01Weather Station Module WS-TEMP Suhu Udara 29.80 °C
10489 02/09/2026 15:24:48 WS-MOD-01Weather Station Module WS-DIR Arah Angin 298.80 °
10490 02/09/2026 15:24:48 WS-MOD-01Weather Station Module WS-RH Kelembapan Udara 63.20 %RH
10491 02/09/2026 15:24:48 WS-MOD-01Weather Station Module WS-WIND Kecepatan Angin 0.03 m/s
10492 02/09/2026 15:24:48 WS-MOD-01Weather Station Module WS-PRES Tekanan Udara 998.00 hPa
10493 02/09/2026 15:24:43 WS-MOD-01Weather Station Module WS-RH Kelembapan Udara 63.30 %RH
10494 02/09/2026 15:24:43 WS-MOD-01Weather Station Module WS-WIND Kecepatan Angin 0.02 m/s
10495 02/09/2026 15:24:43 WS-MOD-01Weather Station Module WS-PRES Tekanan Udara 998.00 hPa
10496 02/09/2026 15:24:43 WS-MOD-01Weather Station Module WS-TEMP Suhu Udara 29.80 °C
10497 02/09/2026 15:24:43 WS-MOD-01Weather Station Module WS-DIR Arah Angin 297.50 °
10498 02/09/2026 15:24:38 WS-MOD-01Weather Station Module WS-RH Kelembapan Udara 63.40 %RH
10499 02/09/2026 15:24:38 WS-MOD-01Weather Station Module WS-WIND Kecepatan Angin 0.01 m/s
10500 02/09/2026 15:24:38 WS-MOD-01Weather Station Module WS-PRES Tekanan Udara 998.00 hPa
Menampilkan maksimal 100 data per halaman